• Join FlightAware (Why Join?)
  • Login
  • US Flag GB Flag 
21:27 EDT


 

Airport Tracker/Info


-or-


 

Live Flight TrackerFlight Track Log ✈ C-FTOH ✈ 14-Apr-2013 ✈ MUCC / CCC - CYQB

Flight Track Log - Related Links

Times and Time Zones

All times are in EDT time to prevent confusion due to time zone crossing. See the C-FTOH flight status page for this flight to view local times or setup timezone preferences in your user account.

Time Position Orientation Groundspeed Altitude Reporting Facility
EDT Latitude Longitude Course Direction KTS MPH feet Rate Location/Type
11:19 23.2522 -78.6817 11° North 442 509 19,800  Level Miami Center
11:20 23.3642 -78.7442 333° Northwest 442 509 21,700 1,920 Climbing Miami Center
11:21 23.4661 -78.7933 336° Northwest 432 497 23,700 1,140 Climbing Miami Center
11:24 22.8243 -78.2497 11° North  Level Estimated
11:27 24.1490 -78.9670 336° Northwest 451 519 29,500  Level FlightAware
11:27 24.2300 -78.9560 North 451 519 30,400 780 Climbing FlightAware
11:29 24.3820 -78.9360 North 452 520 31,100 1,080 Climbing FlightAware
11:29 24.4650 -78.9250 North 456 525 32,400 1,500 Climbing FlightAware
11:30 24.5420 -78.9150 North 441 507 33,000 420 Climbing FlightAware
11:31 24.6260 -78.9040 North 441 507 33,000  Level FlightAware
11:31 24.7150 -78.8920 North 441 507 33,000  Level FlightAware
11:32 24.8160 -78.8790 North 441 507 33,000  Level FlightAware
11:33 24.8890 -78.8690 North 441 507 33,000  Level FlightAware
11:33 24.9690 -78.8580 North 434 499 33,000  Level FlightAware
11:34 25.0740 -78.8440 North 434 499 33,000  Level FlightAware
11:35 25.1600 -78.8320 North 434 499 33,000  Level FlightAware
11:36 25.2580 -78.8200 North 434 499 33,000  Level FlightAware
11:36 25.3280 -78.8100 North 434 499 33,000  Level FlightAware
11:37 25.4210 -78.7980 North 435 501 33,000  Level FlightAware
11:38 25.4950 -78.7880 North 435 501 33,000  Level FlightAware
11:39 25.6490 -78.7670 North 438 504 33,000  Level FlightAware
11:40 25.7120 -78.7580 North 439 505 33,000  Level FlightAware
11:40 25.8170 -78.7440 North 450 518 33,000  Level FlightAware
11:41 25.9110 -78.7310 North 452 520 33,000  Level FlightAware
11:42 25.9840 -78.7210 North 454 522 33,000  Level FlightAware
11:42 26.0560 -78.7120 North 455 524 33,000  Level FlightAware
11:43 26.1300 -78.7010 North 454 522 33,000  Level FlightAware
11:43 26.1950 -78.6920 North 454 522 33,000  Level FlightAware
11:44 26.2780 -78.6810 North 453 521 33,000  Level FlightAware
11:45 26.4140 -78.6630 North 450 518 33,000  Level FlightAware
11:46 26.4670 -78.6560 North 450 518 33,000  Level FlightAware
11:46 26.5690 -78.6420 North 440 506 33,000  Level FlightAware
11:48 26.7010 -78.6230 North 439 505 33,000  Level FlightAware
11:48 26.7900 -78.6110 North 439 505 33,000  Level FlightAware
11:49 26.8640 -78.6010 North 438 504 33,000  Level FlightAware
11:49 26.9360 -78.5910 North 438 504 33,000  Level FlightAware
11:50 27.0240 -78.5790 North 437 503 33,000  Level FlightAware
11:51 27.1020 -78.5680 North 436 502 33,000  Level FlightAware
11:51 27.1700 -78.5590 North 436 502 33,000  Level FlightAware
11:52 27.2460 -78.5480 North 436 502 33,000  Level FlightAware
11:53 27.3540 -78.5330 North 437 503 33,000  Level FlightAware
11:54 27.4460 -78.5200 North 436 502 33,000  Level FlightAware
11:55 27.5990 -78.4990 North 437 503 33,000  Level FlightAware
11:56 27.7020 -78.4850 North 436 502 33,000  Level FlightAware
11:56 27.7730 -78.4750 North 436 502 33,000  Level FlightAware
11:57 27.8640 -78.4620 North 437 503 33,000  Level FlightAware
11:58 27.9620 -78.4480 North 438 504 33,000  Level FlightAware
11:59 28.0440 -78.4370 North 438 504 33,000  Level FlightAware
11:59 28.1300 -78.4250 North 438 504 33,000  Level FlightAware
12:00 28.1810 -78.4180 North 438 504 33,000  Level FlightAware
12:00 28.2320 -78.4110 North 438 504 33,000  Level FlightAware
12:01 28.3180 -78.3990 North 438 504 33,000  Level FlightAware
12:02 28.3690 -78.3910 North 438 504 33,000  Level FlightAware
12:02 28.4210 -78.3840 North 438 504 33,000  Level FlightAware
12:03 28.4890 -78.3750 North 438 504 33,000  Level FlightAware
12:03 28.5400 -78.3680 North 438 504 33,000  Level FlightAware
12:04 28.6260 -78.3560 North 438 504 33,000  Level FlightAware
12:05 28.6940 -78.3460 North 438 504 33,000  Level FlightAware
12:06 28.7620 -78.3370 North 438 504 33,000  Level FlightAware
12:06 28.8140 -78.3290 North 438 504 33,000  Level FlightAware
12:07 28.8990 -78.3170 North 438 504 33,000  Level FlightAware
12:07 28.9500 -78.3100 North 438 504 33,000  Level FlightAware
12:08 29.2286 -78.2689 North 447 514 33,000  Level Miami Center
12:09 29.3539 -78.2514 North 449 517 33,000 -60 Level Miami Center
12:10 29.4833 -78.2364 North 444 511 32,900  Descending Miami Center
12:11 29.5961 -78.2186 North 457 526 33,000 60 Climbing Miami Center
12:12 29.6606 -78.2039 11° North 450 518 33,000  Level Jacksonville Center
12:13 29.7872 -78.1858 North 450 518 33,000 -60 Level Jacksonville Center
12:14 29.9139 -78.1700 North 445 512 32,900  Descending Jacksonville Center
12:15 30.0342 -78.1497 North 445 512 33,000  Climbing Jacksonville Center
12:16 30.1589 -78.1317 North 445 512 33,000  Level Jacksonville Center
12:17 30.2917 -78.1153 North 427 491 33,000  Level Jacksonville Center
12:18 30.4161 -78.0947 North 453 521 33,000  Level Jacksonville Center
12:19 30.5450 -78.0761 North 453 521 33,000  Level Jacksonville Center
12:20 30.6633 -78.0581 North 444 511 33,000  Level Jacksonville Center
12:21 30.7797 -78.0450 North 448 516 33,000  Level Jacksonville Center
12:22 30.9250 -78.0231 North 462 532 33,000  Level Jacksonville Center
12:23 31.0386 -77.9928 13° North 441 507 33,000 -60 Level Jacksonville Center
12:24 31.1633 -77.9792 North 449 517 32,900  Descending Jacksonville Center
12:25 31.2858 -77.9631 North 442 509 33,000  Climbing Jacksonville Center
12:26 31.4083 -77.9467 North 442 509 33,000  Level Jacksonville Center
12:27 31.5303 -77.9133 13° North 444 511 33,000 240 Level Jacksonville Center
12:28 31.6558 -77.8725 15° North 453 521 33,500 840 Climbing Jacksonville Center
12:29 31.7775 -77.8317 16° North 461 531 34,700 660 Climbing Jacksonville Center
12:30 31.8989 -77.7908 16° North 455 524 34,900 120 Climbing Jacksonville Center
12:31 32.0247 -77.7519 15° North 450 518 35,000 120 Climbing Jacksonville Center
12:32 32.1461 -77.7133 15° North 450 518 35,200 720 Climbing Jacksonville Center
12:33 32.2678 -77.6719 16° North 450 518 36,500 900 Climbing Jacksonville Center
12:34 32.3872 -77.6333 15° North 450 518 37,000 180 Climbing Jacksonville Center
12:35 32.5086 -77.5942 15° North 450 518 36,900  Descending Jacksonville Center
12:36 32.6278 -77.5528 16° North 450 518 37,000  Climbing Jacksonville Center
12:37 32.7472 -77.5136 15° North 450 518 36,900  Descending Jacksonville Center
12:38 32.8686 -77.4742 15° North 450 518 37,000  Climbing Jacksonville Center
12:39 32.9922 -77.4319 16° North 450 518 37,000  Level Jacksonville Center
12:41 33.2808 -77.3356 16° North 447 514 37,000  Level Washington Center
12:42 33.4025 -77.2933 16° North 447 514 37,000  Level Washington Center
12:43 33.5242 -77.2533 15° North 442 509 37,000  Level Washington Center
12:44 33.6456 -77.2133 15° North 442 509 37,000  Level Washington Center
12:45 33.7650 -77.1681 17° North 442 509 37,000 -60 Level Washington Center
12:46 33.8886 -77.1281 15° North 442 509 36,900 -60 Descending Washington Center
12:47 34.0103 -77.0878 15° North 442 509 36,900  Level Washington Center
12:48 34.1297 -77.0472 16° North 442 509 37,000  Climbing Washington Center
12:49 34.2533 -77.0042 16° North 442 509 37,000  Level Washington Center
12:50 34.3747 -76.9633 16° North 442 509 37,000  Level Washington Center
12:51 34.4961 -76.9200 16° North 442 509 37,000 -60 Level Washington Center
12:52 34.6156 -76.8792 16° North 437 503 36,900  Descending Washington Center
12:53 34.7350 -76.8381 16° North 437 503 37,000  Climbing Washington Center
12:54 34.8542 -76.7969 16° North 437 503 37,000  Level Washington Center
12:55 34.9714 -76.7556 16° North 437 503 37,000  Level Washington Center
12:56 35.0889 -76.7139 16° North 437 503 37,000  Level Washington Center
12:57 35.2081 -76.6700 17° North 437 503 37,000  Level Washington Center
12:58 35.3275 -76.6283 16° North 437 503 37,000 -60 Level Washington Center
12:59 35.4550 -76.5789 18° North 432 497 36,900  Descending Washington Center
13:00 35.5722 -76.5369 16° North 438 504 37,000  Climbing Washington Center
13:01 35.6936 -76.4975 15° North 438 504 37,000  Level Washington Center
13:02 35.8128 -76.4528 17° North 438 504 37,000 -60 Level Washington Center
13:03 35.9342 -76.4103 16° North 438 504 36,900  Descending Washington Center
13:09 36.5920 -76.1710 16° North 440 506 37,000  Climbing FlightAware
13:09 36.6590 -76.1460 17° North 439 505 37,000  Level FlightAware
13:10 36.7600 -76.1090 16° North 437 503 37,000  Level FlightAware
13:11 36.8990 -76.0580 16° North 443 510 37,000  Level FlightAware
13:12 36.9598 -76.0350 17° North 442 509 37,000  Level FlightAware ADS-B
13:12 37.0322 -76.0080 17° North 442 509 37,000  Level FlightAware ADS-B
13:13 37.0972 -75.9837 17° North 440 506 37,000  Level FlightAware ADS-B
13:13 37.1579 -75.9611 17° North 437 503 37,000  Level FlightAware ADS-B
13:14 37.2212 -75.9374 17° North 435 501 37,000  Level FlightAware ADS-B
13:14 37.2805 -75.9153 17° North 435 501 37,000  Level FlightAware ADS-B
13:15 37.3414 -75.8924 17° North 437 503 37,000  Level FlightAware ADS-B
13:15 37.4017 -75.8698 17° North 438 504 37,000  Level FlightAware ADS-B
13:16 37.4657 -75.8457 17° North 438 504 37,000  Level FlightAware ADS-B
13:16 37.5130 -75.8280 17° North 435 501 37,000  Level FlightAware
13:17 37.5740 -75.8050 17° North 433 498 37,000  Level FlightAware
13:18 37.6750 -75.7670 17° North 423 487 37,000  Level FlightAware
13:18 37.7096 -75.7535 17° North 431 496 37,000  Level FlightAware ADS-B
13:19 37.7666 -75.7320 17° North 430 495 37,000  Level FlightAware ADS-B
13:19 37.8243 -75.7101 17° North 429 494 37,000  Level FlightAware ADS-B
13:20 37.9080 -75.6780 17° North 423 487 37,000  Level FlightAware
13:21 37.9820 -75.6500 17° North 434 499 37,000  Level FlightAware
13:21 38.0353 -75.6298 17° North 431 496 37,000  Level FlightAware ADS-B
13:21 38.0944 -75.6071 17° North 437 503 37,000  Level FlightAware ADS-B
13:22 38.1537 -75.5844 17° North 438 504 37,000  Level FlightAware ADS-B
13:22 38.2128 -75.5616 17° North 438 504 37,000  Level FlightAware ADS-B
13:23 38.2959 -75.5296 17° North 438 504 37,000  Level FlightAware ADS-B
13:24 38.3633 -75.5035 17° North 440 506 37,000  Level FlightAware ADS-B
13:24 38.4315 -75.4752 18° North 442 509 37,000  Level FlightAware ADS-B
13:25 38.4908 -75.4501 18° North 443 510 37,000  Level FlightAware ADS-B
13:25 38.5566 -75.4228 18° North 443 510 37,000  Level FlightAware ADS-B
13:26 38.6162 -75.3981 18° North 443 510 37,000  Level FlightAware ADS-B
13:26 38.6799 -75.3715 18° North 442 509 37,000  Level FlightAware ADS-B
13:27 38.7468 -75.3436 18° North 440 506 37,000  Level FlightAware ADS-B
13:28 38.8210 -75.3131 18° North 440 506 37,000  Level FlightAware ADS-B
13:28 38.8294 -75.3104 14° North 427 491 37,000  Level FlightAware ADS-B
13:28 38.8868 -75.2943 12° North 422 486 37,000  Level FlightAware ADS-B
13:29 38.9420 -75.2790 12° North 423 487 37,000  Level FlightAware
13:29 38.9848 -75.2672 12° North 424 488 37,000  Level FlightAware ADS-B
13:30 39.0435 -75.2507 12° North 425 489 37,000  Level FlightAware ADS-B
13:30 39.1202 -75.2293 12° North 425 489 37,000  Level FlightAware ADS-B
13:31 39.1829 -75.2116 12° North 423 487 37,000  Level FlightAware ADS-B
13:31 39.2436 -75.1944 12° North 422 486 37,000  Level FlightAware ADS-B
13:32 39.3140 -75.1746 12° North 419 482 37,000  Level FlightAware ADS-B
13:33 39.3940 -75.1519 12° North 416 479 37,000  Level FlightAware ADS-B
13:33 39.4516 -75.1356 12° North 413 475 37,000  Level FlightAware ADS-B
13:34 39.5117 -75.1187 12° North 412 474 37,000  Level FlightAware ADS-B
13:34 39.5767 -75.1002 12° North 410 472 37,000  Level FlightAware ADS-B
13:35 39.6390 -75.0825 12° North 409 471 37,000  Level FlightAware ADS-B
13:35 39.6833 -75.0699 12° North 408 470 37,000  Level FlightAware ADS-B
13:36 39.7583 -75.0485 12° North 408 470 37,000  Level FlightAware ADS-B
13:37 39.8442 -75.0240 12° North 406 467 37,000  Level FlightAware ADS-B
13:37 39.9019 -75.0073 13° North 403 464 37,000  Level FlightAware ADS-B
13:38 39.9583 -74.9910 12° North 404 465 37,000  Level FlightAware ADS-B
13:38 40.0204 -74.9731 12° North 403 464 37,000  Level FlightAware ADS-B
13:39 40.0761 -74.9570 12° North 402 463 37,000  Level FlightAware ADS-B
13:39 40.1389 -74.9388 12° North 401 461 37,000  Level FlightAware ADS-B
13:40 40.1942 -74.9229 12° North 400 460 37,000  Level FlightAware ADS-B
13:40 40.2498 -74.9068 12° North 403 464 37,000  Level FlightAware ADS-B
13:41 40.3060 -74.8903 13° North 402 463 37,000  Level FlightAware ADS-B
13:42 40.3615 -74.8741 13° North 400 460 37,000  Level FlightAware ADS-B
13:42 40.4190 -74.8570 13° North 398 458 37,000 -300 Level FlightAware
13:42 40.4443 -74.8499 12° North 400 460 36,800 -840 Descending FlightAware ADS-B
13:43 40.4998 -74.8337 13° North 405 466 36,400 -780 Descending FlightAware ADS-B
13:43 40.5597 -74.8166 12° North 408 470 36,000 -780 Descending FlightAware ADS-B
13:44 40.6203 -74.7990 12° North 412 474 35,600 -780 Descending FlightAware ADS-B
13:44 40.6765 -74.7823 13° North 416 479 35,200 -600 Descending FlightAware ADS-B
13:45 40.7406 -74.7631 13° North 415 478 35,000 -180 Descending FlightAware ADS-B
13:46 40.8248 -74.7379 13° North 411 473 35,000  Level FlightAware ADS-B
13:46 40.9016 -74.7155 12° North 409 471 35,000  Level FlightAware ADS-B
13:47 40.9621 -74.6975 13° North 407 468 35,000  Level FlightAware ADS-B
13:47 41.0183 -74.6808 13° North 407 468 35,000 -300 Level FlightAware ADS-B
13:48 41.1152 -74.6520 13° North 406 467 34,600 -660 Descending FlightAware ADS-B
13:49 41.1742 -74.6346 13° North 409 471 34,100 -960 Descending FlightAware ADS-B
13:50 41.2477 -74.6128 13° North 411 473 33,500 -960 Descending FlightAware ADS-B
13:50 41.3080 -74.5945 13° North 416 479 33,000 -480 Descending FlightAware ADS-B
13:51 41.3801 -74.5724 13° North 415 478 33,000  Level FlightAware ADS-B
13:51 41.4380 -74.5550 13° North 414 476 33,000  Level FlightAware ADS-B
13:52 41.4961 -74.5376 13° North 414 476 33,000  Level FlightAware ADS-B
13:52 41.5551 -74.5200 13° North 415 478 33,000  Level FlightAware ADS-B
13:53 41.6125 -74.5025 13° North 416 479 33,000  Level FlightAware ADS-B
13:53 41.6713 -74.4848 13° North 416 479 33,000  Level FlightAware ADS-B
13:54 41.7351 -74.4655 13° North 419 482 33,000  Level FlightAware ADS-B
13:54 41.7984 -74.4460 13° North 420 483 33,000  Level FlightAware ADS-B
13:55 41.8578 -74.4278 13° North 421 484 33,000  Level FlightAware ADS-B
13:55 41.9120 -74.4110 13° North 423 487 33,000  Level FlightAware
13:56 41.9391 -74.4032 12° North 423 487 33,000  Level FlightAware ADS-B
13:56 42.0067 -74.3824 13° North 423 487 33,000  Level FlightAware ADS-B
13:57 42.0660 -74.3640 13° North 429 494 33,000 -240 Level FlightAware
13:57 42.1000 -74.3470 20° North 439 505 32,800 -240 Descending FlightAware
13:58 42.1800 -74.3080 20° North 439 505 32,800  Level FlightAware
13:58 42.2280 -74.2840 20° North 439 505 32,800  Level FlightAware
13:59 42.3090 -74.2440 20° North 439 505 32,800  Level FlightAware
14:00 42.3580 -74.2200 20° North 439 505 32,800  Level FlightAware
14:00 42.4230 -74.1890 19° North 439 505 32,800  Level FlightAware
14:01 42.4880 -74.1560 21° North 439 505 32,800  Level FlightAware
14:02 42.5530 -74.1240 20° North 439 505 32,800  Level FlightAware
14:02 42.6180 -74.0920 20° North 439 505 32,800  Level FlightAware
14:03 42.6660 -74.0680 20° North 439 505 32,800  Level FlightAware
14:03 42.7150 -74.0440 20° North 439 505 32,800  Level FlightAware
14:04 42.7800 -74.0120 20° North 439 505 32,800  Level FlightAware
14:05 42.8290 -73.9880 20° North 439 505 32,800  Level FlightAware
14:05 42.9100 -73.9480 20° North 439 505 32,800  Level FlightAware
14:06 42.9750 -73.9150 20° North 439 505 32,800  Level FlightAware
14:07 43.0560 -73.8750 20° North 439 505 32,800 -960 Level FlightAware
14:08 43.2580 -73.6250 42° Northeast 31,000 -1,680 Descending FlightAware
14:08 43.2670 -73.6190 26° Northeast 434 499 31,000  Level FlightAware
14:09 43.3980 -73.5350 25° Northeast 436 502 31,000  Level FlightAware
14:10 43.4630 -73.4930 25° Northeast 436 502 31,000  Level FlightAware
14:11 43.5890 -73.4120 25° Northeast 436 502 31,000  Level FlightAware
14:11 43.6820 -73.3520 25° Northeast 435 501 31,000  Level FlightAware
14:12 43.7550 -73.3050 25° Northeast 434 499 31,000  Level FlightAware
14:13 43.8260 -73.2590 25° Northeast 434 499 31,000  Level FlightAware
14:13 43.9000 -73.2100 26° Northeast 435 501 31,000  Level FlightAware
14:14 43.9710 -73.1640 25° Northeast 436 502 31,000  Level FlightAware
14:15 44.0340 -73.1230 25° Northeast 437 503 31,000  Level FlightAware
14:15 44.0790 -73.0930 26° Northeast 438 504 31,000  Level FlightAware
14:16 44.1620 -73.0380 25° Northeast 441 507 31,000  Level FlightAware
14:16 44.2210 -72.9990 25° Northeast 443 510 31,000  Level FlightAware
14:17 44.3220 -72.9330 25° Northeast 442 509 31,000  Level FlightAware
14:18 44.3850 -72.8910 25° Northeast 441 507 31,000  Level FlightAware
14:19 44.4710 -72.8340 25° Northeast 440 506 31,000  Level FlightAware
14:19 44.5280 -72.7950 26° Northeast 439 505 31,000  Level FlightAware
14:20 44.5970 -72.7490 25° Northeast 438 504 31,000  Level FlightAware
14:20 44.6520 -72.7120 26° Northeast 438 504 31,000  Level FlightAware
14:21 44.7520 -72.6450 25° Northeast 440 506 31,000  Level FlightAware
14:22 44.8250 -72.5960 25° Northeast 440 506 31,000  Level FlightAware
14:23 44.9110 -72.5380 26° Northeast 442 509 31,000  Level FlightAware
14:23 44.9900 -72.4840 26° Northeast 442 509 31,000  Level FlightAware
14:24 45.0560 -72.4390 26° Northeast 442 509 31,000  Level FlightAware
14:24 45.1210 -72.3950 26° Northeast 444 511 31,000  Level FlightAware
14:25 45.1770 -72.3560 26° Northeast 445 512 31,000  Level FlightAware
14:26 45.2520 -72.3050 26° Northeast 445 512 31,000  Level FlightAware
14:26 45.3140 -72.2620 26° Northeast 445 512 31,000  Level FlightAware
14:27 45.3880 -72.2120 25° Northeast 445 512 31,000  Level FlightAware
14:28 45.4630 -72.1600 26° Northeast 444 511 31,000  Level FlightAware
14:28 45.5250 -72.1170 26° Northeast 444 511 31,000 -360 Level FlightAware
14:29 45.5930 -72.0690 26° Northeast 445 512 30,600 -900 Descending FlightAware
14:29 45.6760 -72.0100 26° Northeast 436 502 29,800 -1,560 Descending FlightAware
14:30 45.7640 -71.9490 26° Northeast 420 483 28,200 -1,980 Descending FlightAware
14:31 45.8160 -71.9130 26° Northeast 414 476 27,200 -2,100 Descending FlightAware
14:31 45.8850 -71.8650 26° Northeast 406 467 25,800 -2,100 Descending FlightAware
14:32 45.9510 -71.8180 26° Northeast 398 458 24,400 -2,100 Descending FlightAware
14:33 46.0010 -71.7830 26° Northeast 391 450 23,400 -2,100 Descending FlightAware
14:33 46.0167 -71.7500 26° Northeast 390 449 22,800 -2,280 Descending Montreal Center
14:34 46.1167 -71.6833 25° Northeast 390 449 20,500 -2,160 Descending Montreal Center
14:35 46.1833 -71.6000 41° Northeast 380 437 18,500 -1,980 Descending Montreal Center
14:37 46.3667 -71.4500 29° Northeast 350 403 14,700 -1,920 Descending Montreal Center
14:38 46.4667 -71.3833 25° Northeast 340 391 12,800 -1,800 Descending Montreal Center
14:39 46.5333 -71.3167 35° Northeast 330 380 11,100 -1,380 Descending Montreal Center
14:40 46.6167 -71.2500 29° Northeast 300 345 10,100 -840 Descending Montreal Center
14:41 46.6833 -71.2000 27° Northeast 270 311 9,500 -840 Descending Montreal Center
14:42 46.7500 -71.1500 27° Northeast 250 288 8,500 -960 Descending Montreal Center
14:43 46.8000 -71.0833 42° Northeast 250 288 7,600 -900 Descending Montreal Center
14:44 46.8500 -71.0500 25° Northeast 230 265 6,700 -960 Descending Montreal Center
14:45 46.9000 -71.0333 13° North 210 242 5,700 -1,020 Descending Montreal Center
14:46 46.9333 -71.1000 306° West 200 230 4,700 -840 Descending Montreal Center
14:52 46.7890 -71.3960 306° West 158 182 200 -840 Descending FlightAware